Showing default

COSMOS 1642, 15624

Orbit data source: Space-Track

COSMOS 1642, 15624 is a payload satellite owned by GUKOS (CIS) in LEO that was launched on Thu, 21 Mar 1985 UTC via a KOSMOS 11K65M launch vehicle from the Plesetsk Missile And Space Complex (PKMTR). Payload-class satellites include a variety of spacecraft equipped with specific instruments for various scientific and technological missions. These include communications satellites like Starlink; space stations such as the ISS; scientific satellites like the Hubble; Earth observation satellites from companies like Planet Labs, Umbra, and HawkEye 360; GPS; miniature CubeSats for education and research; and military/defense satellites.

Loading next visibility...
Identifier
15624, 1985-023H
Orbit
LEO
Country
Flag of CISCIS
Related business
Manufacturer
NPO PM
Mission
Spacecraft
Bus & Motor
STRELA-1 11F625, Unknown motor
Mass
60 kg wet, 60 kg dry
Launch date (UTC)
1985-03-21 (41 years ago)
Launch vehicle
KOSMOS 11K65M
Launch site
Plesetsk Missile And Space Complex (PKMTR)
Object type
Payload
Rocket body
Debris
Shape & HBR
Unknown
Radar Cross Section
Medium (>0.1 m² and <1 m²)

Expand to show TLE details & history
Last TLE update: 10 hours ago

TLE from 10 hours ago
0 COSMOS 1642
1 15624U 85023H   25346.86484458 -.00000009  00000-0  38220-4 0  9992
2 15624  74.0568  17.6231 0050081 113.4892  71.8370 12.56389408868062
Epoch: 2025-12-12T20:45Z
TLE epoch observation values (Epoch: 2025-12-12T20:45:22.571Z)
Latitude
-5.77886°
Longitude
166.12725°
Altitude
1,429.183 km
Speed
7.152 km/s
True Right ascension
13h 17m 05s
True Declination
-5° 44' 51"
Sunlit
Object was in daylight at epoch
Visualization orbit readout
Latitude
Unknown
Longitude
Unknown
Altitude
Unknown
Speed
Unknown
Apparent Right ascension
Unknown
Apparent Declination
Unknown
Sunlit
N/A
Visualization observer readout
Local Sidereal Time
05:23:56
Azimuth
Unknown
Elevation
Unknown
Doppler factor
Unknown
Orbital elements
Apogee altitude
1,474.841 km
Perigee altitude
1,396.576 km
Semi-major axis
7,813.846 km
Eccentricity
0.00501
Inclination
74.0568°
RAAN
17.6231°
Arg. of periapsis
113.4892°
True anomaly
72.38335°
Mean anomaly
71.837°
Eccentric anomaly
72.11007°
Mean motion
3.14229 °/min
Orbital period
114.57 mins
BSTAR
0.00003822
Loading maneuver chart data...
Computing Atmospheric mass density...
Loading historical data...
Loading historical data...
Loading historical data...
Loading historical data...
Loading historical data...
Loading historical data...
Loading historical data...

Documentation

Showing up to 5 results
|